Location: Newark
(51.3318°N, 0.0053°E)
Time: 16:33:55
(UTC+00:00)

DIWATA 2B (PO-101) - Pass Details

Date: 10 July 2022
Orbit: 583 x 599 km, 98.0° (Epoch: 07 August)

Event Time Altitude Azimuth Distance (km) Brightness Sun altitude
Exits shadow 02:55:26 10° 221° (SW) 1,976 ? -7.5°
Reaches altitude 10° 02:55:34 10° 223° (SW) 1,938 ? -7.5°
Maximum altitude 02:58:36 19° 269° (W) 1,440 ? -7.2°
Drops below altitude 10° 03:01:40 10° 315° (NW) 1,948 ? -6.9°
Sets 03:04:23 0° 334° (NNW) 2,854 ? -6.6°
